Temp
60 59 59 58 58 58 58 59 58 59 59 60 61 61 62 62 64 58 52 57 60 66 64 58 61 60 60 56 56 53 46 39 42 41 46 45 45 46 48 45 46 46 45 47 48
60 59 59 58 57 57 58 58 58 58 59 59 60 61 61 62 55 53 62 66 66 66 58 59 58 59 54 53 52 51 45 46 47 46 44 44 46 44 44 43 43 43 43 45 45
60 60 59 58 57 57 57 58 58 58 59 59 60 61 61 57 52 51 65 65 65 63 57 58 59 58 52 50 49 46 46 45 46 47 47 45 43 44 42 40 44 42 41 43 43
60 59 59 58 57 57 57 57 57 58 58 59 60 61 61 53 45 54 64 64 65 59 58 58 57 52 47 46 47 47 45 45 46 46 46 44 43 42 42 47 46 46 45 42 41
60 59 59 58 57 57 56 57 57 57 58 59 60 61 53 48 49 56 61 60 58 57 55 56 53 50 46 44 45 44 42 43 43 44 43 45 41 43 41 44 43 43 43 42 42
60 59 58 57 57 56 56 56 57 57 58 59 60 61 49 45 53 55 55 56 55 54 52 55 54 51 46 43 43 41 43 43 43 43 44 43 40 41 43 40 40 42 41 41 41
59 59 58 57 57 56 56 56 56 57 58 59 61 56 49 46 52 54 56 52 53 53 53 53 54 52 46 42 44 44 42 42 42 44 42 44 41 38 42 40 39 39 39 39 41
59 59 58 57 56 56 56 56 56 57 58 59 61 50 44 53 53 55 56 55 57 56 54 53 53 48 46 44 43 41 39 38 41 43 41 43 39 41 38 39 38 38 37 38 39
58 58 58 57 56 56 56 56 56 58 59 60 48 45 42 57 51 51 52 53 53 54 54 57 50 44 43 39 37 36 35 34 38 42 41 40 38 40 37 38 39 37 37 38 38
58 58 58 57 56 56 55 56 56 56 55 56 54 44 44 45 47 49 50 52 52 50 51 50 42 38 36 37 36 35 34 34 34 38 37 35 37 38 37 36 39 38 37 37 38
58 58 57 57 56 56 51 47 46 44 45 44 44 44 44 46 49 48 49 51 50 49 41 41 40 36 39 37 38 37 36 35 33 37 36 35 37 42 38 36 37 37 38 38 39
58 58 57 57 56 55 46 44 46 49 40 43 44 45 46 47 45 46 50 47 45 39 40 39 37 38 40 39 38 38 36 34 35 36 35 33 35 41 38 40 41 41 40 40 40
58 57 57 57 56 47 43 46 49 47 43 40 44 44 45 49 43 45 48 43 40 38 37 38 37 39 40 38 38 35 36 34 35 34 35 32 33 35 40 41 40 43 45 43 41
57 57 56 56 47 43 43 50 49 47 34 39 39 42 44 46 41 47 47 44 39 39 39 37 37 38 37 36 38 36 37 36 35 34 29 33 27 36 38 39 37 40 40 42 40
56 56 56 55 45 44 52 49 48 50 19 39 38 46 43 41 41 41 45 44 39 36 38 37 35 36 36 38 39 36 36 35 34 31 30 29 26 34 33 39 43 41 39 41 40
56 55 54 46 48 51 51 50 51 30 19 31 36 36 38 38 38 41 41 44 41 37 35 33 36 35 35 35 36 35 35 33 30 29 18 27 27 31 35 39 43 40 39 38 38
55 54 51 48 44 50 52 50 31 21 33 28 32 35 35 35 36 37 37 35 34 31 31 33 33 33 36 34 37 35 32 18 19 14 20 23 23 32 38 40 41 42 40 37 37
55 52 48 47 48 50 50 37 27 26 26 32 33 34 33 36 34 36 35 32 35 33 30 30 26 33 36 35 33 32 32 23 17 16 21 25 21 38 39 40 40 40 40 37 34
52 46 44 45 47 47 41 27 28 30 32 32 34 27 28 33 33 35 33 31 37 36 37 29 29 32 35 34 35 32 27 31 14 5 16 27 33 40 41 38 39 40 37 36 34
46 43 42 47 47 46 35 31 28 36 36 35 36 32 25 27 32 32 32 35 38 39 40 35 26 31 32 34 33 32 34 25 18 15 11 20 24 35 40 42 41 37 37 37 34
46 38 42 47 47 38 31 32 33 39 40 37 33 27 31 26 33 31 32 36 41 37 41 35 33 25 31 29 28 26 24 24 27 23 17 14 26 36 40 40 42 43 40 37 34
43 33 44 47 33 32 31 33 40 38 40 39 38 35 33 31 30 31 33 35 41 41 35 37 28 19 24 26 27 29 30 28 22 20 16 17 24 40 39 38 39 39 40 37 35
34 32 42 44 31 29 32 34 38 37 36 36 37 40 36 31 32 32 34 38 40 40 36 36 28 15 22 26 26 26 29 29 18 18 15 18 26 38 38 38 39 37 38 36 33
35 30 32 34 32 33 32 32 34 38 38 39 37 39 33 29 33 30 33 34 36 38 44 41 27 25 28 31 27 23 27 31 25 14 18 20 24 41 42 40 40 38 36 35 32
34 31 33 28 31 32 34 34 34 32 37 40 35 37 35 27 28 30 30 32 35 35 34 34 28 21 21 26 25 28 28 28 27 32 27 27 26 38 42 39 40 38 37 35 32
32 30 32 28 34 32 34 31 33 34 35 34 34 39 36 34 38 27 29 29 31 30 30 29 26 24 24 24 26 23 28 26 29 29 28 32 30 38 43 39 38 37 34 35 32
33 33 34 32 31 31 32 31 35 38 37 40 39 35 35 39 37 38 38 38 36 31 29 28 26 26 23 23 23 27 27 27 24 23 29 24 35 42 40 42 41 38 32 35 35
MSLP
1015.64 1015.99 1016.12 1016.19 1016.16 1016.15 1016.12 1016.04 1015.77 1015.65 1015.52 1015.43 1015.32 1015.06 1015.01 1014.64 1014.43 1014.45 1015.05 1015.34 1015.09 1014.64 1014.51 1014.37 1014.10 1014.26 1014.49 1015.96 1016.74 1017.54 1019.39 1021.28 1021.61 1022.41 1022.03 1022.92 1023.45 1024.07 1024.41 1024.92 1025.55 1025.94 1026.32 1026.42 1026.90
1015.38 1015.78 1015.90 1016.07 1016.02 1016.05 1016.10 1016.03 1015.76 1015.65 1015.56 1015.43 1015.09 1015.01 1014.88 1014.65 1014.68 1014.95 1015.17 1014.95 1014.77 1014.51 1014.41 1014.32 1014.52 1014.57 1015.89 1016.81 1017.46 1018.01 1019.64 1020.25 1020.55 1021.04 1021.72 1022.49 1023.12 1023.99 1024.70 1025.15 1025.70 1026.13 1026.46 1026.71 1027.06
1015.09 1015.46 1015.72 1015.93 1015.96 1015.92 1015.94 1015.90 1015.76 1015.57 1015.27 1015.15 1015.16 1015.01 1014.70 1014.69 1014.82 1015.10 1014.90 1014.79 1014.55 1014.41 1014.44 1014.34 1014.51 1015.00 1016.64 1017.47 1018.39 1018.96 1019.80 1020.32 1020.87 1021.13 1021.58 1022.53 1023.24 1023.67 1024.27 1025.02 1024.56 1025.05 1025.97 1026.65 1026.98
1014.89 1015.12 1015.48 1015.67 1015.86 1015.80 1015.88 1015.87 1015.80 1015.66 1015.46 1015.14 1014.94 1014.76 1014.70 1014.62 1015.31 1014.98 1014.85 1014.63 1014.36 1014.32 1014.50 1014.49 1014.80 1015.96 1017.46 1018.41 1018.95 1019.63 1020.58 1020.93 1021.39 1021.60 1022.05 1022.67 1023.10 1023.68 1023.96 1023.52 1023.81 1024.17 1025.07 1026.07 1026.58
1014.53 1014.88 1015.18 1015.48 1015.67 1015.76 1015.67 1015.83 1015.63 1015.47 1015.43 1015.02 1014.69 1014.72 1014.73 1014.74 1015.02 1014.94 1014.78 1014.54 1014.34 1014.38 1014.51 1014.62 1015.25 1016.51 1018.06 1019.03 1019.60 1020.18 1021.03 1021.46 1021.76 1021.91 1022.35 1022.81 1023.30 1023.60 1023.52 1023.55 1023.92 1024.51 1025.36 1025.87 1026.38
1014.13 1014.53 1014.95 1015.29 1015.46 1015.56 1015.55 1015.64 1015.48 1015.31 1015.33 1015.08 1014.68 1014.43 1014.72 1015.22 1015.09 1015.00 1014.87 1014.46 1014.58 1014.60 1014.74 1014.78 1015.41 1016.34 1018.37 1019.58 1020.10 1020.82 1021.18 1021.71 1021.92 1022.14 1022.44 1022.87 1023.39 1023.69 1022.94 1023.57 1024.40 1024.82 1025.25 1025.67 1025.95
1013.75 1014.28 1014.61 1015.06 1015.23 1015.35 1015.41 1015.43 1015.36 1015.31 1015.12 1015.03 1014.74 1014.43 1014.68 1015.29 1015.16 1015.02 1014.75 1014.85 1014.78 1014.86 1015.15 1015.35 1015.62 1016.34 1018.43 1019.98 1020.60 1020.83 1021.41 1021.74 1021.92 1021.90 1022.16 1022.41 1023.13 1022.58 1022.84 1023.75 1024.38 1024.87 1025.31 1025.72 1026.00
1013.20 1013.89 1014.41 1014.73 1014.93 1015.14 1015.21 1015.16 1015.21 1015.21 1014.94 1014.80 1014.74 1014.57 1014.84 1015.01 1015.05 1015.06 1014.99 1014.90 1014.96 1015.01 1015.40 1015.91 1016.01 1017.33 1018.86 1020.06 1020.70 1021.09 1021.27 1021.87 1021.77 1021.79 1022.09 1022.36 1021.86 1021.67 1022.52 1023.43 1024.00 1024.42 1024.90 1025.31 1025.71
1012.60 1013.29 1013.99 1014.46 1014.70 1014.86 1015.05 1014.88 1015.00 1014.97 1014.79 1014.61 1014.77 1014.88 1015.06 1014.92 1015.08 1015.40 1015.18 1015.21 1015.33 1015.65 1015.91 1016.07 1016.73 1018.83 1019.76 1020.32 1021.35 1021.64 1021.51 1021.65 1021.52 1021.60 1021.81 1022.12 1021.64 1021.69 1022.36 1023.00 1023.33 1024.02 1024.31 1024.71 1025.07
1011.88 1012.72 1013.48 1014.07 1014.38 1014.66 1014.64 1014.91 1014.74 1014.83 1014.86 1014.76 1014.91 1015.37 1015.36 1015.19 1015.33 1015.38 1015.33 1015.32 1015.51 1015.98 1016.36 1017.00 1018.26 1019.49 1020.29 1020.42 1020.79 1020.88 1021.40 1021.65 1021.70 1021.78 1021.93 1022.19 1021.08 1021.47 1022.05 1022.63 1022.43 1022.86 1023.33 1023.86 1024.17
1011.23 1012.11 1013.00 1013.68 1014.13 1014.36 1014.65 1014.99 1015.38 1015.33 1015.06 1014.59 1014.85 1015.07 1015.25 1015.46 1015.45 1015.49 1015.51 1015.51 1015.81 1016.29 1017.29 1017.98 1019.03 1019.43 1019.45 1019.81 1019.86 1020.23 1020.70 1021.09 1021.41 1021.74 1022.05 1021.50 1021.24 1020.38 1021.39 1021.85 1021.82 1021.73 1021.96 1022.45 1022.74
1010.52 1011.61 1012.43 1013.30 1013.87 1014.17 1014.60 1014.46 1013.76 1013.52 1014.70 1015.17 1015.07 1015.20 1015.17 1015.29 1015.57 1015.81 1015.69 1015.74 1016.24 1017.24 1017.75 1018.80 1018.96 1019.06 1019.35 1019.99 1020.08 1020.33 1020.92 1021.48 1021.70 1021.89 1022.24 1021.36 1020.59 1019.50 1019.87 1019.45 1019.37 1019.52 1020.31 1020.81 1022.13
1009.94 1011.07 1012.07 1012.87 1013.65 1014.32 1014.28 1013.70 1013.38 1013.39 1014.21 1015.36 1015.31 1015.26 1015.31 1015.24 1015.60 1015.88 1015.95 1016.12 1016.56 1017.64 1018.25 1018.58 1019.10 1019.30 1019.33 1020.07 1020.56 1020.78 1020.94 1021.50 1022.07 1022.16 1022.26 1021.70 1019.72 1018.28 1017.27 1017.46 1017.61 1018.05 1018.28 1019.16 1019.85
1009.15 1010.31 1011.43 1012.56 1014.15 1013.85 1013.88 1012.86 1013.07 1013.29 1014.85 1015.37 1015.52 1015.40 1015.48 1015.22 1015.83 1016.09 1016.14 1016.30 1017.16 1017.57 1018.53 1019.06 1019.32 1019.42 1019.94 1020.29 1020.43 1021.41 1021.27 1021.75 1022.43 1022.84 1022.98 1022.61 1020.31 1018.08 1016.73 1016.68 1016.58 1016.51 1016.99 1017.50 1018.59
1008.17 1009.51 1010.57 1011.16 1012.05 1012.77 1011.84 1012.43 1013.07 1013.08 1015.01 1015.55 1015.73 1015.72 1015.46 1016.04 1016.10 1016.42 1016.36 1016.24 1017.29 1017.99 1018.74 1019.27 1019.69 1019.94 1020.22 1020.49 1020.60 1021.51 1021.83 1022.51 1023.16 1023.74 1023.71 1023.08 1022.65 1017.66 1016.67 1016.05 1015.03 1015.08 1016.02 1016.96 1017.62
1007.19 1008.53 1010.15 1011.66 1011.73 1011.31 1011.44 1012.25 1013.13 1014.88 1014.98 1015.86 1015.87 1015.90 1015.81 1016.25 1016.47 1016.66 1016.63 1016.81 1017.66 1018.25 1018.98 1019.76 1020.07 1020.25 1020.70 1021.28 1021.27 1022.13 1022.65 1023.47 1024.21 1024.81 1024.70 1023.46 1022.70 1018.16 1016.44 1015.25 1014.74 1014.73 1015.23 1016.24 1017.51
1006.53 1007.74 1009.23 1010.57 1011.09 1010.96 1011.42 1012.54 1014.49 1014.88 1014.61 1015.91 1016.08 1016.16 1016.11 1016.59 1017.02 1016.75 1016.93 1017.27 1017.30 1018.55 1019.19 1019.94 1020.25 1020.62 1020.76 1021.70 1022.37 1022.41 1023.20 1024.82 1025.83 1026.40 1025.17 1023.75 1023.01 1018.08 1015.23 1014.36 1014.49 1014.88 1015.48 1016.25 1017.21
1006.71 1008.30 1009.73 1010.53 1010.80 1011.41 1011.90 1013.84 1014.71 1013.72 1014.58 1015.46 1015.80 1016.49 1016.42 1016.34 1016.98 1017.22 1017.14 1017.35 1017.21 1017.20 1018.79 1019.59 1020.79 1020.75 1020.78 1020.89 1021.44 1022.74 1023.06 1024.12 1025.55 1026.84 1025.52 1024.00 1021.10 1015.70 1014.26 1013.80 1013.77 1014.43 1015.15 1016.04 1016.95
1006.95 1009.16 1010.07 1011.22 1011.43 1011.54 1012.55 1014.98 1013.37 1012.92 1013.47 1014.61 1015.84 1016.40 1017.05 1016.69 1016.63 1017.23 1017.38 1016.84 1016.22 1016.89 1016.93 1018.48 1020.22 1021.05 1021.20 1021.37 1021.41 1022.85 1023.37 1023.64 1025.72 1027.82 1026.10 1022.47 1018.94 1015.39 1013.24 1013.25 1013.65 1014.16 1015.27 1016.27 1017.01
1007.33 1009.30 1010.51 1011.13 1011.78 1011.93 1012.88 1013.23 1013.07 1012.59 1013.01 1013.53 1013.98 1014.51 1015.95 1016.60 1016.90 1016.96 1017.00 1015.73 1014.98 1015.18 1015.72 1016.87 1019.51 1021.36 1021.70 1021.71 1022.06 1022.17 1022.58 1023.85 1025.00 1026.23 1025.21 1022.19 1019.81 1016.23 1013.75 1013.36 1013.44 1014.06 1014.80 1015.79 1016.94
1007.28 1009.43 1011.23 1011.38 1012.09 1012.52 1012.49 1012.26 1012.52 1011.95 1011.72 1012.00 1013.07 1014.34 1015.01 1015.57 1015.98 1016.23 1016.04 1015.35 1014.68 1014.92 1015.36 1016.58 1017.92 1021.83 1022.09 1021.81 1021.70 1022.71 1022.79 1023.37 1023.68 1024.10 1023.61 1021.96 1017.72 1014.32 1013.49 1013.34 1013.54 1013.52 1014.19 1015.18 1016.14
1007.77 1010.10 1011.42 1011.08 1012.61 1012.58 1012.10 1011.88 1011.05 1011.17 1011.51 1011.36 1011.84 1012.67 1014.02 1014.81 1015.32 1015.69 1015.34 1014.88 1014.40 1014.44 1015.85 1016.44 1018.22 1020.82 1021.17 1021.53 1021.64 1021.59 1021.82 1022.06 1022.92 1023.44 1023.25 1021.31 1016.75 1013.37 1013.04 1012.97 1013.17 1013.49 1014.05 1014.73 1015.69
1008.94 1011.12 1011.82 1011.69 1011.67 1012.02 1011.87 1011.34 1010.98 1011.15 1010.91 1011.18 1011.54 1011.87 1013.42 1014.16 1014.96 1014.93 1014.74 1014.64 1014.75 1014.76 1015.43 1016.31 1017.71 1020.20 1021.34 1021.95 1021.93 1021.42 1020.75 1021.06 1021.65 1021.96 1022.08 1020.56 1016.28 1013.15 1012.94 1012.68 1012.79 1013.41 1014.00 1014.90 1015.93
1008.98 1011.39 1012.57 1012.35 1011.67 1010.96 1011.03 1010.89 1010.79 1010.70 1010.77 1010.78 1011.01 1011.63 1013.47 1014.11 1014.24 1014.76 1015.04 1015.47 1015.48 1015.89 1015.77 1015.98 1017.23 1017.99 1018.56 1018.64 1019.03 1020.16 1019.35 1019.35 1020.12 1020.89 1019.95 1017.85 1016.04 1013.75 1012.38 1012.57 1012.57 1013.02 1013.62 1014.60 1015.84
1008.90 1009.93 1010.15 1011.29 1011.00 1010.80 1010.80 1010.23 1009.96 1010.34 1010.38 1010.48 1011.04 1010.60 1011.82 1013.48 1014.27 1014.56 1015.04 1016.00 1016.55 1016.72 1016.74 1017.26 1017.95 1018.10 1017.91 1018.10 1018.38 1018.40 1018.10 1018.41 1019.00 1017.82 1017.83 1016.42 1015.50 1013.87 1011.86 1011.76 1011.73 1012.45 1013.26 1014.16 1015.08
1009.07 1009.92 1010.22 1009.83 1010.07 1010.93 1010.51 1009.43 1009.56 1009.71 1009.55 1010.33 1009.73 1010.53 1011.31 1011.83 1011.45 1013.74 1014.74 1015.60 1016.20 1017.30 1017.50 1018.14 1018.57 1018.60 1018.20 1017.81 1017.68 1017.51 1016.86 1017.28 1017.49 1017.59 1017.14 1016.03 1014.59 1012.73 1011.17 1011.40 1011.19 1011.48 1012.61 1013.25 1013.68
1009.46 1010.23 1009.99 1010.20 1010.33 1010.57 1009.06 1009.24 1009.19 1009.10 1009.21 1009.07 1009.51 1010.61 1011.15 1010.24 1011.54 1012.47 1014.03 1014.64 1014.89 1015.88 1017.35 1018.00 1018.13 1018.86 1018.33 1017.55 1017.30 1015.70 1014.22 1014.95 1015.05 1014.94 1014.39 1014.23 1012.25 1011.16 1010.44 1009.48 1009.77 1010.75 1011.88 1012.10 1012.37
Wind_Speed
8 7 5 3 1 2 3 3 4 4 4 6 6 8 9 10 3 4 3 2 5 12 7 3 2 3 5 6 5 4 6 3 6 8 4 6 5 1 2 6 1 0 2 1 16
9 8 5 4 2 2 3 5 4 4 5 5 7 8 9 9 3 6 3 7 8 8 2 3 4 4 6 4 4 5 4 8 5 6 6 7 5 9 4 4 3 1 2 9 13
10 9 7 5 3 2 3 5 6 6 6 6 7 8 10 4 2 1 4 9 7 2 1 2 5 5 6 5 5 2 4 2 2 2 6 7 5 5 8 5 8 10 12 11 7
11 10 9 6 4 2 3 3 5 6 4 4 7 9 9 1 3 1 9 10 6 3 2 4 5 6 5 5 2 5 4 3 3 3 5 8 8 5 6 4 1 7 16 12 11
12 11 9 8 5 3 2 4 4 5 7 5 5 8 1 2 2 3 9 7 1 3 2 5 5 5 7 5 3 4 2 4 3 6 5 6 2 2 8 3 2 10 12 13 11
12 11 11 9 6 4 3 4 5 5 6 7 5 4 1 3 0 5 6 1 3 1 2 3 6 5 8 4 3 3 5 4 4 3 3 3 1 2 4 5 6 12 12 11 13
13 13 12 10 7 5 4 4 4 5 4 6 5 3 3 1 2 5 5 2 3 1 4 3 7 6 7 6 6 5 6 4 1 3 3 4 6 11 4 7 10 10 9 9 10
15 13 13 12 9 6 4 3 4 6 5 3 5 1 3 1 1 4 5 4 4 5 6 6 8 11 6 5 6 5 5 3 4 5 3 5 9 1 8 12 13 12 10 10 9
16 15 14 13 10 7 4 2 5 5 4 3 1 1 2 2 4 2 4 4 3 4 7 4 7 6 3 6 5 5 4 4 4 6 5 6 8 3 7 9 11 11 12 12 9
20 17 15 14 11 8 4 3 2 2 1 1 2 2 1 4 2 1 3 3 5 3 4 8 7 5 4 3 7 8 4 3 5 4 3 3 18 7 7 10 15 13 13 13 14
21 20 17 15 11 8 3 4 5 3 2 4 4 3 2 0 1 4 1 3 3 9 4 3 5 7 11 3 4 7 4 4 4 2 4 9 15 17 8 10 14 15 16 17 18
24 22 20 16 12 8 4 4 5 5 3 1 2 3 2 2 4 1 2 6 4 3 4 5 5 2 8 5 5 4 3 2 2 1 4 4 14 18 11 14 20 21 18 19 13
25 24 21 18 14 5 4 5 2 3 5 2 2 3 3 5 2 7 3 2 5 6 4 7 1 4 5 5 5 1 4 4 2 1 4 8 9 7 5 12 6 16 15 17 21
27 27 25 21 6 5 4 5 5 2 6 5 4 1 2 3 3 1 2 3 3 9 9 2 2 5 4 3 5 3 1 4 4 1 5 3 10 7 5 8 8 14 17 15 17
29 29 28 21 10 6 6 9 6 4 2 1 2 1 2 3 5 2 1 3 8 6 6 4 6 4 4 4 5 3 3 5 3 2 4 1 2 9 3 8 11 10 13 15 16
31 32 29 5 1 2 9 9 3 10 10 2 3 3 7 3 2 3 2 7 5 5 5 3 1 2 3 3 2 10 6 7 4 3 4 3 2 6 4 5 6 3 5 9 11
31 34 22 8 6 7 6 5 6 7 2 4 5 5 3 5 3 3 6 6 8 7 5 2 2 1 4 8 6 2 5 3 6 5 8 2 2 13 10 8 6 4 3 6 9
27 25 13 3 4 6 3 7 6 3 6 3 5 4 6 6 2 3 6 5 5 3 5 8 5 8 5 5 9 4 4 8 9 5 5 1 8 9 9 8 7 7 6 5 8
28 4 4 7 6 2 13 6 10 8 9 11 5 6 2 3 5 4 6 7 9 10 8 7 1 2 3 1 3 7 5 3 9 3 4 5 9 12 7 10 8 7 4 7 7
8 4 3 12 4 9 5 10 6 5 8 4 9 6 9 7 6 7 9 6 9 13 3 7 5 3 1 0 3 2 5 4 3 3 5 5 7 10 7 5 5 6 11 8 6
4 6 4 7 4 5 6 7 7 7 6 9 8 6 4 10 7 7 6 4 6 5 5 6 6 1 2 7 9 1 3 2 3 5 7 3 9 9 9 6 8 7 7 8 9
4 5 7 10 6 3 4 8 6 7 4 2 5 5 9 9 7 7 11 5 4 10 9 2 6 5 8 1 1 3 7 7 7 7 2 3 10 6 7 7 6 9 7 4 6
4 4 3 8 6 5 2 0 5 5 6 8 8 4 3 7 4 6 7 2 6 7 8 9 3 4 5 3 2 7 8 5 4 4 8 8 8 0 5 7 8 9 6 4 5
5 6 3 4 1 3 7 5 7 3 4 4 5 7 6 2 3 7 7 3 3 4 6 6 2 8 9 5 6 7 10 17 8 5 6 8 6 10 9 8 7 8 8 6 7
2 3 4 12 12 3 5 10 12 8 3 6 4 9 11 5 2 5 3 4 6 5 5 4 4 2 3 1 3 4 6 15 20 23 11 7 14 18 21 11 14 9 6 7 9
3 3 1 3 7 11 8 9 12 7 11 8 12 10 4 7 14 7 7 2 5 2 4 3 2 2 3 3 5 8 8 10 18 11 13 21 18 16 19 10 13 12 9 11 11
2 1 1 5 8 10 15 5 11 9 5 5 15 4 11 20 6 9 6 5 10 9 6 7 5 3 7 3 5 15 11 16 8 6 10 12 20 14 18 23 19 9 9 14 12
Wind_Direction
203 214 224 232 254 317 326 337 2 354 353 337 339 348 337 345 335 38 57 264 302 311 319 290 49 45 44 74 63 138 73 163 197 154 201 173 146 197 74 114 112 199 151 313 135
202 219 215 232 235 291 315 329 352 346 338 333 348 339 336 342 93 62 222 315 313 318 5 132 95 69 52 61 26 82 114 204 181 176 178 176 162 159 138 146 211 161 69 131 141
211 217 223 228 233 263 304 325 337 339 347 349 338 331 336 317 126 200 330 324 317 308 110 101 91 77 69 46 6 37 158 121 48 172 148 144 137 156 143 218 203 189 171 161 163
216 212 223 221 234 237 295 309 322 327 324 342 341 335 320 231 178 213 336 327 320 147 154 109 55 67 82 99 4 88 61 18 8 82 128 161 124 181 211 192 360 186 164 164 170
213 215 219 225 227 248 265 301 318 330 320 334 347 331 306 99 170 347 338 334 89 142 123 129 95 121 117 105 87 80 101 55 63 87 82 111 73 292 234 263 64 141 156 171 179
201 205 214 212 216 240 266 286 316 324 317 319 330 343 77 178 278 338 331 17 40 90 54 45 152 130 99 77 73 133 101 108 53 107 100 142 218 21 223 130 138 160 174 180 188
190 211 208 202 210 220 243 285 303 302 304 312 318 105 82 163 341 318 22 25 12 309 103 34 125 71 138 104 165 140 90 114 136 177 150 157 261 230 153 151 170 185 188 195 202
186 205 213 200 201 213 229 269 294 299 298 303 317 11 159 227 248 25 326 47 45 41 88 86 88 96 71 117 43 65 59 130 220 173 210 148 258 268 159 159 196 198 201 201 198
185 186 204 196 198 200 225 257 297 291 288 327 57 92 171 306 89 307 27 100 69 38 56 80 63 88 90 94 51 9 199 194 268 212 170 178 265 187 174 193 207 205 207 208 203
178 183 191 192 193 195 185 264 287 351 8 63 65 44 29 178 115 31 20 59 99 94 54 44 56 76 41 105 208 191 200 213 238 219 243 186 258 240 199 196 219 214 212 212 208
177 178 180 187 187 185 138 99 45 10 0 191 148 123 141 103 299 47 23 103 82 58 126 11 91 196 208 142 67 119 131 162 238 224 223 236 263 256 203 223 223 226 218 216 216
174 173 170 171 176 150 110 162 200 163 137 351 107 84 126 191 103 344 166 119 126 141 124 36 227 156 114 108 102 106 114 248 300 241 200 333 272 268 205 229 216 216 219 217 207
173 169 164 162 153 120 178 206 158 152 105 206 201 162 197 139 126 182 150 121 117 128 176 156 206 122 107 126 121 124 164 179 251 291 256 322 275 267 266 237 214 222 222 212 202
174 166 157 145 138 160 220 208 169 159 67 232 213 208 56 147 123 342 352 126 55 167 150 201 145 138 103 157 129 179 150 114 127 87 265 3 287 303 294 279 232 227 216 208 198
171 162 156 157 138 166 195 143 149 67 25 314 151 266 115 171 128 335 14 55 151 139 130 222 155 153 143 177 172 169 118 104 91 72 343 203 308 269 340 284 261 235 223 213 196
167 161 148 130 142 172 130 123 68 53 248 149 115 163 113 34 49 119 109 53 138 98 52 85 346 36 105 71 36 151 77 54 59 37 340 333 215 280 235 220 306 341 218 199 189
166 158 157 145 167 149 149 87 63 166 327 212 168 171 113 139 110 150 164 162 154 121 191 101 153 112 136 81 351 88 92 346 354 11 228 37 282 252 272 256 228 282 276 203 180
159 137 135 99 115 143 126 64 194 205 175 163 108 100 172 154 135 148 133 187 238 98 118 151 283 172 179 169 169 187 173 163 201 197 261 48 242 249 213 250 237 247 251 189 178
126 106 90 141 120 84 117 181 201 192 159 141 90 105 254 209 134 154 200 202 191 192 170 148 250 2 36 18 115 186 202 160 98 20 57 239 284 292 293 264 255 242 214 228 199
121 97 81 144 130 134 123 200 219 163 134 150 174 148 169 188 153 183 174 211 189 179 213 198 96 12 10 52 37 181 157 93 359 192 248 279 279 238 300 322 340 246 236 223 199
87 95 112 122 145 135 191 203 191 207 162 151 188 113 154 173 176 188 189 265 218 150 124 146 112 328 132 209 176 114 230 20 137 157 179 178 256 207 226 241 254 255 238 221 196
110 99 164 153 136 220 199 174 208 170 167 149 109 111 169 160 163 209 198 246 156 140 164 182 111 158 195 227 214 192 212 175 143 225 232 144 271 204 237 244 233 266 265 226 180
85 97 13 205 176 204 174 243 182 160 175 166 166 150 147 153 152 195 194 51 156 150 157 179 221 72 357 1 347 218 195 179 118 95 194 152 253 41 262 261 240 246 257 225 185
115 125 103 228 251 200 166 180 190 218 163 141 145 108 100 120 231 196 204 51 71 36 78 88 110 172 205 184 128 194 217 200 162 142 192 212 277 296 266 249 267 234 233 208 198
44 157 219 185 222 181 178 176 185 171 220 172 201 195 160 141 67 205 81 102 38 351 56 106 224 141 255 151 186 240 217 196 209 224 204 203 201 244 259 254 247 224 217 199 202
117 137 302 65 146 191 195 209 193 170 157 205 228 183 144 189 196 141 120 167 182 13 93 48 225 166 293 327 219 261 225 188 218 244 263 261 256 248 265 268 261 231 205 221 209
78 99 30 153 179 186 218 176 196 161 218 192 211 136 194 218 107 96 97 196 167 144 142 161 136 130 258 333 334 277 199 192 191 194 187 213 228 244 256 249 256 260 200 228 221